#datetime,building,power
2024-04-02T00:00:00,axn,27.63
2024-04-02T00:01:00,axn,28.16
2024-04-02T00:02:00,axn,27.95
2024-04-02T00:03:00,axn,28.14
2024-04-02T00:04:00,axn,27.66
2024-04-02T00:05:00,axn,27.74
2024-04-02T00:06:00,axn,27.56
2024-04-02T00:07:00,axn,27.56
2024-04-02T00:08:00,axn,27.74
2024-04-02T00:09:00,axn,27.82
2024-04-02T00:10:00,axn,27.79
2024-04-02T00:11:00,axn,27.99
2024-04-02T00:12:00,axn,27.86
2024-04-02T00:13:00,axn,27.88
2024-04-02T00:14:00,axn,27.88
2024-04-02T00:15:00,axn,27.79
2024-04-02T00:16:00,axn,27.95
2024-04-02T00:17:00,axn,27.70
2024-04-02T00:18:00,axn,27.70
2024-04-02T00:19:00,axn,27.87
2024-04-02T00:20:00,axn,27.54
2024-04-02T00:21:00,axn,28.01
2024-04-02T00:22:00,axn,27.66
2024-04-02T00:23:00,axn,27.57
2024-04-02T00:24:00,axn,27.51
2024-04-02T00:25:00,axn,27.57
2024-04-02T00:26:00,axn,32.70
2024-04-02T00:27:00,axn,27.51
2024-04-02T00:28:00,axn,27.92
2024-04-02T00:29:00,axn,27.43
2024-04-02T00:30:00,axn,27.41
2024-04-02T00:31:00,axn,27.70
2024-04-02T00:32:00,axn,27.29
2024-04-02T00:33:00,axn,27.65
2024-04-02T00:34:00,axn,27.22
2024-04-02T00:35:00,axn,26.74
2024-04-02T00:36:00,axn,26.83
2024-04-02T00:37:00,axn,26.98
2024-04-02T00:38:00,axn,27.68
2024-04-02T00:39:00,axn,27.07
2024-04-02T00:40:00,axn,27.23
2024-04-02T00:41:00,axn,27.16
2024-04-02T00:42:00,axn,26.94
2024-04-02T00:43:00,axn,26.93
2024-04-02T00:44:00,axn,27.06
2024-04-02T00:45:00,axn,27.04
2024-04-02T00:46:00,axn,26.96
2024-04-02T00:47:00,axn,27.03
2024-04-02T00:48:00,axn,26.91
2024-04-02T00:49:00,axn,26.93
2024-04-02T00:50:00,axn,26.65
2024-04-02T00:51:00,axn,29.63
2024-04-02T00:52:00,axn,26.60
2024-04-02T00:53:00,axn,26.63
2024-04-02T00:54:00,axn,26.60
2024-04-02T00:55:00,axn,26.52
2024-04-02T00:56:00,axn,26.49
2024-04-02T00:57:00,axn,26.57
2024-04-02T00:58:00,axn,26.77
2024-04-02T00:59:00,axn,27.24
2024-04-02T01:00:00,axn,26.77
2024-04-02T01:01:00,axn,41.69
2024-04-02T01:02:00,axn,41.20
2024-04-02T01:03:00,axn,41.24
2024-04-02T01:04:00,axn,41.22
2024-04-02T01:05:00,axn,41.07
2024-04-02T01:06:00,axn,41.04
2024-04-02T01:07:00,axn,26.79
2024-04-02T01:08:00,axn,26.73
2024-04-02T01:09:00,axn,26.66
2024-04-02T01:10:00,axn,26.78
2024-04-02T01:11:00,axn,26.81
2024-04-02T01:12:00,axn,26.86
2024-04-02T01:13:00,axn,26.79
2024-04-02T01:14:00,axn,26.63
2024-04-02T01:15:00,axn,26.33
2024-04-02T01:16:00,axn,26.60
2024-04-02T01:17:00,axn,26.58
2024-04-02T01:18:00,axn,26.60
2024-04-02T01:19:00,axn,26.54
2024-04-02T01:20:00,axn,26.24
2024-04-02T01:21:00,axn,26.54
2024-04-02T01:22:00,axn,26.57
2024-04-02T01:23:00,axn,26.46
2024-04-02T01:24:00,axn,26.63
2024-04-02T01:25:00,axn,26.43
2024-04-02T01:26:00,axn,26.78
2024-04-02T01:27:00,axn,26.55
2024-04-02T01:28:00,axn,26.12
2024-04-02T01:29:00,axn,26.20
2024-04-02T01:30:00,axn,26.12
2024-04-02T01:31:00,axn,26.31
2024-04-02T01:32:00,axn,26.41
2024-04-02T01:33:00,axn,26.28
2024-04-02T01:34:00,axn,26.38
2024-04-02T01:35:00,axn,26.42
2024-04-02T01:36:00,axn,26.49
2024-04-02T01:37:00,axn,26.45
2024-04-02T01:38:00,axn,26.32
2024-04-02T01:39:00,axn,26.37
2024-04-02T01:40:00,axn,26.53
2024-04-02T01:41:00,axn,26.50
2024-04-02T01:42:00,axn,26.55
2024-04-02T01:43:00,axn,26.54
2024-04-02T01:44:00,axn,26.31
2024-04-02T01:45:00,axn,26.31
2024-04-02T01:46:00,axn,26.43
2024-04-02T01:47:00,axn,26.53
2024-04-02T01:48:00,axn,26.53
2024-04-02T01:49:00,axn,26.50
2024-04-02T01:50:00,axn,26.34
2024-04-02T01:51:00,axn,26.45
2024-04-02T01:52:00,axn,26.50
2024-04-02T01:53:00,axn,26.56
2024-04-02T01:54:00,axn,26.58
2024-04-02T01:55:00,axn,26.67
2024-04-02T01:56:00,axn,26.56
2024-04-02T01:57:00,axn,26.88
2024-04-02T01:58:00,axn,26.37
2024-04-02T01:59:00,axn,26.52
2024-04-02T02:00:00,axn,26.76
2024-04-02T02:01:00,axn,26.67
2024-04-02T02:02:00,axn,26.94
2024-04-02T02:03:00,axn,26.57
2024-04-02T02:04:00,axn,26.51
2024-04-02T02:05:00,axn,26.43
2024-04-02T02:06:00,axn,26.49
2024-04-02T02:07:00,axn,26.34
2024-04-02T02:08:00,axn,26.35
2024-04-02T02:09:00,axn,27.09
2024-04-02T02:10:00,axn,26.64
2024-04-02T02:11:00,axn,26.31
2024-04-02T02:12:00,axn,27.04
2024-04-02T02:13:00,axn,26.75
2024-04-02T02:14:00,axn,26.78
2024-04-02T02:15:00,axn,30.98
2024-04-02T02:16:00,axn,31.21
2024-04-02T02:17:00,axn,31.15
2024-04-02T02:18:00,axn,26.71
2024-04-02T02:19:00,axn,26.55
2024-04-02T02:20:00,axn,26.59
2024-04-02T02:21:00,axn,26.91
2024-04-02T02:22:00,axn,26.74
2024-04-02T02:23:00,axn,27.05
2024-04-02T02:24:00,axn,26.61
2024-04-02T02:25:00,axn,36.97
2024-04-02T02:26:00,axn,37.17
2024-04-02T02:27:00,axn,37.02
2024-04-02T02:28:00,axn,36.85
2024-04-02T02:29:00,axn,26.67
2024-04-02T02:30:00,axn,26.67
2024-04-02T02:31:00,axn,26.57
2024-04-02T02:32:00,axn,26.50
2024-04-02T02:33:00,axn,26.34
2024-04-02T02:34:00,axn,26.51
2024-04-02T02:35:00,axn,26.43
2024-04-02T02:36:00,axn,29.33
2024-04-02T02:37:00,axn,27.86
2024-04-02T02:38:00,axn,26.48
2024-04-02T02:39:00,axn,26.46
2024-04-02T02:40:00,axn,26.48
2024-04-02T02:41:00,axn,26.63
2024-04-02T02:42:00,axn,26.56
2024-04-02T02:43:00,axn,26.81
2024-04-02T02:44:00,axn,26.59
2024-04-02T02:45:00,axn,26.51
2024-04-02T02:46:00,axn,26.97
2024-04-02T02:47:00,axn,26.73
2024-04-02T02:48:00,axn,26.70
2024-04-02T02:49:00,axn,26.66
2024-04-02T02:50:00,axn,26.86
2024-04-02T02:51:00,axn,26.82
2024-04-02T02:52:00,axn,26.91
2024-04-02T02:53:00,axn,26.90
2024-04-02T02:54:00,axn,26.79
2024-04-02T02:55:00,axn,26.75
2024-04-02T02:56:00,axn,26.96
2024-04-02T02:57:00,axn,26.74
2024-04-02T02:58:00,axn,26.79
2024-04-02T02:59:00,axn,26.75
2024-04-02T03:00:00,axn,27.00
2024-04-02T03:01:00,axn,27.06
2024-04-02T03:02:00,axn,27.09
2024-04-02T03:03:00,axn,26.99
2024-04-02T03:04:00,axn,27.55
2024-04-02T03:05:00,axn,27.59
2024-04-02T03:06:00,axn,27.13
2024-04-02T03:07:00,axn,27.14
2024-04-02T03:08:00,axn,27.18
2024-04-02T03:09:00,axn,26.92
2024-04-02T03:10:00,axn,26.75
2024-04-02T03:11:00,axn,27.11
2024-04-02T03:12:00,axn,26.80
2024-04-02T03:13:00,axn,26.87
2024-04-02T03:14:00,axn,26.78
2024-04-02T03:15:00,axn,26.73
2024-04-02T03:16:00,axn,27.25
2024-04-02T03:17:00,axn,26.96
2024-04-02T03:18:00,axn,26.90
2024-04-02T03:19:00,axn,26.71
2024-04-02T03:20:00,axn,26.61
2024-04-02T03:21:00,axn,26.53
2024-04-02T03:22:00,axn,26.88
2024-04-02T03:23:00,axn,26.85
2024-04-02T03:24:00,axn,26.68
2024-04-02T03:25:00,axn,26.62
2024-04-02T03:26:00,axn,26.82
2024-04-02T03:27:00,axn,26.72
2024-04-02T03:28:00,axn,26.81
2024-04-02T03:29:00,axn,26.42
2024-04-02T03:30:00,axn,26.55
2024-04-02T03:31:00,axn,26.72
2024-04-02T03:32:00,axn,26.28
2024-04-02T03:33:00,axn,26.28
2024-04-02T03:34:00,axn,26.29
2024-04-02T03:35:00,axn,26.63
2024-04-02T03:36:00,axn,31.73
2024-04-02T03:37:00,axn,26.41
2024-04-02T03:38:00,axn,26.41
2024-04-02T03:39:00,axn,26.60
2024-04-02T03:40:00,axn,26.34
2024-04-02T03:41:00,axn,26.33
2024-04-02T03:42:00,axn,26.61
2024-04-02T03:43:00,axn,26.20
2024-04-02T03:44:00,axn,26.19
2024-04-02T03:45:00,axn,26.31
2024-04-02T03:46:00,axn,26.32
2024-04-02T03:47:00,axn,26.08
2024-04-02T03:48:00,axn,26.18
2024-04-02T03:49:00,axn,26.00
2024-04-02T03:50:00,axn,26.05
2024-04-02T03:51:00,axn,25.89
2024-04-02T03:52:00,axn,26.05
2024-04-02T03:53:00,axn,25.99
2024-04-02T03:54:00,axn,25.58
2024-04-02T03:55:00,axn,25.85
2024-04-02T03:56:00,axn,25.80
2024-04-02T03:57:00,axn,26.11
2024-04-02T03:58:00,axn,26.00
2024-04-02T03:59:00,axn,26.11
2024-04-02T04:00:00,axn,26.38
2024-04-02T04:01:00,axn,26.07
2024-04-02T04:02:00,axn,25.93
2024-04-02T04:03:00,axn,25.95
2024-04-02T04:04:00,axn,25.94
2024-04-02T04:05:00,axn,25.86
2024-04-02T04:06:00,axn,26.13
2024-04-02T04:07:00,axn,26.01
2024-04-02T04:08:00,axn,25.91
2024-04-02T04:09:00,axn,25.71
2024-04-02T04:10:00,axn,25.79
2024-04-02T04:11:00,axn,26.20
2024-04-02T04:12:00,axn,26.03
2024-04-02T04:13:00,axn,26.08
2024-04-02T04:14:00,axn,25.90
2024-04-02T04:15:00,axn,26.11
2024-04-02T04:16:00,axn,25.78
2024-04-02T04:17:00,axn,26.05
2024-04-02T04:18:00,axn,25.59
2024-04-02T04:19:00,axn,25.69
2024-04-02T04:20:00,axn,43.07
2024-04-02T04:21:00,axn,25.88
2024-04-02T04:22:00,axn,26.01
2024-04-02T04:23:00,axn,26.41
2024-04-02T04:24:00,axn,25.86
2024-04-02T04:25:00,axn,25.96
2024-04-02T04:26:00,axn,26.27
2024-04-02T04:27:00,axn,26.08
2024-04-02T04:28:00,axn,26.05
2024-04-02T04:29:00,axn,25.94
2024-04-02T04:30:00,axn,26.15
2024-04-02T04:31:00,axn,26.38
2024-04-02T04:32:00,axn,25.83
2024-04-02T04:33:00,axn,25.84
2024-04-02T04:34:00,axn,26.07
2024-04-02T04:35:00,axn,25.93
2024-04-02T04:36:00,axn,25.77
2024-04-02T04:37:00,axn,25.68
2024-04-02T04:38:00,axn,25.66
2024-04-02T04:39:00,axn,26.27
2024-04-02T04:40:00,axn,25.53
2024-04-02T04:41:00,axn,25.91
2024-04-02T04:42:00,axn,25.94
2024-04-02T04:43:00,axn,26.12
2024-04-02T04:44:00,axn,25.84
2024-04-02T04:45:00,axn,25.61
2024-04-02T04:46:00,axn,25.49
2024-04-02T04:47:00,axn,25.69
2024-04-02T04:48:00,axn,25.56
2024-04-02T04:49:00,axn,25.64
2024-04-02T04:50:00,axn,25.69
2024-04-02T04:51:00,axn,25.90
2024-04-02T04:52:00,axn,25.66
2024-04-02T04:53:00,axn,25.75
2024-04-02T04:54:00,axn,26.01
2024-04-02T04:55:00,axn,25.91
2024-04-02T04:56:00,axn,25.68
2024-04-02T04:57:00,axn,25.36
2024-04-02T04:58:00,axn,25.28
2024-04-02T04:59:00,axn,25.05
2024-04-02T05:00:00,axn,25.20
2024-04-02T05:01:00,axn,24.27
2024-04-02T05:02:00,axn,28.75
2024-04-02T05:03:00,axn,45.42
2024-04-02T05:04:00,axn,28.79
2024-04-02T05:05:00,axn,28.84
2024-04-02T05:06:00,axn,29.07
2024-04-02T05:07:00,axn,28.89
2024-04-02T05:08:00,axn,28.66
2024-04-02T05:09:00,axn,29.02
2024-04-02T05:10:00,axn,23.82
2024-04-02T05:11:00,axn,23.86
2024-04-02T05:12:00,axn,24.07
2024-04-02T05:13:00,axn,24.00
2024-04-02T05:14:00,axn,23.99
2024-04-02T05:15:00,axn,23.85
2024-04-02T05:16:00,axn,24.23
2024-04-02T05:17:00,axn,40.89
2024-04-02T05:18:00,axn,24.01
2024-04-02T05:19:00,axn,38.44
2024-04-02T05:20:00,axn,38.77
2024-04-02T05:21:00,axn,23.79
2024-04-02T05:22:00,axn,38.25
2024-04-02T05:23:00,axn,23.66
2024-04-02T05:24:00,axn,23.37
2024-04-02T05:25:00,axn,37.77
2024-04-02T05:26:00,axn,37.73
2024-04-02T05:27:00,axn,40.35
2024-04-02T05:28:00,axn,35.15
2024-04-02T05:29:00,axn,34.69
2024-04-02T05:30:00,axn,30.70
2024-04-02T05:31:00,axn,25.47
2024-04-02T05:32:00,axn,25.82
2024-04-02T05:33:00,axn,25.74
2024-04-02T05:34:00,axn,25.94
2024-04-02T05:35:00,axn,26.03
2024-04-02T05:36:00,axn,25.97
2024-04-02T05:37:00,axn,25.95
2024-04-02T05:38:00,axn,25.98
2024-04-02T05:39:00,axn,25.92
2024-04-02T05:40:00,axn,25.84
2024-04-02T05:41:00,axn,25.68
2024-04-02T05:42:00,axn,25.75
2024-04-02T05:43:00,axn,25.71
2024-04-02T05:44:00,axn,25.58
2024-04-02T05:45:00,axn,25.40
2024-04-02T05:46:00,axn,25.43
2024-04-02T05:47:00,axn,25.32
2024-04-02T05:48:00,axn,25.34
2024-04-02T05:49:00,axn,25.22
2024-04-02T05:50:00,axn,25.33
2024-04-02T05:51:00,axn,25.29
2024-04-02T05:52:00,axn,25.20
2024-04-02T05:53:00,axn,25.21
2024-04-02T05:54:00,axn,26.40
2024-04-02T05:55:00,axn,25.47
2024-04-02T05:56:00,axn,25.09
2024-04-02T05:57:00,axn,29.78
2024-04-02T05:58:00,axn,29.64
2024-04-02T05:59:00,axn,25.12
2024-04-02T06:00:00,axn,25.28
2024-04-02T06:01:00,axn,25.41
2024-04-02T06:02:00,axn,25.59
2024-04-02T06:03:00,axn,25.36
2024-04-02T06:04:00,axn,25.01
2024-04-02T06:05:00,axn,24.97
2024-04-02T06:06:00,axn,25.46
2024-04-02T06:07:00,axn,25.19
2024-04-02T06:08:00,axn,24.61
2024-04-02T06:09:00,axn,24.24
2024-04-02T06:10:00,axn,24.24
2024-04-02T06:11:00,axn,24.18
2024-04-02T06:12:00,axn,24.11
2024-04-02T06:13:00,axn,24.31
2024-04-02T06:14:00,axn,24.48
2024-04-02T06:15:00,axn,24.43
2024-04-02T06:16:00,axn,24.49
2024-04-02T06:17:00,axn,24.47
2024-04-02T06:18:00,axn,24.84
2024-04-02T06:19:00,axn,24.74
2024-04-02T06:20:00,axn,24.38
2024-04-02T06:21:00,axn,24.44
2024-04-02T06:22:00,axn,24.30
2024-04-02T06:23:00,axn,24.36
2024-04-02T06:24:00,axn,24.38
2024-04-02T06:25:00,axn,24.07
2024-04-02T06:26:00,axn,28.57
2024-04-02T06:27:00,axn,24.68
2024-04-02T06:28:00,axn,24.51
2024-04-02T06:29:00,axn,24.25
2024-04-02T06:30:00,axn,24.63
2024-04-02T06:31:00,axn,24.39
2024-04-02T06:32:00,axn,27.27
2024-04-02T06:33:00,axn,26.87
2024-04-02T06:34:00,axn,27.17
2024-04-02T06:35:00,axn,24.36
2024-04-02T06:36:00,axn,24.19
2024-04-02T06:37:00,axn,24.32
2024-04-02T06:38:00,axn,24.27
2024-04-02T06:39:00,axn,24.07
2024-04-02T06:40:00,axn,24.14
2024-04-02T06:41:00,axn,23.79
2024-04-02T06:42:00,axn,23.79
2024-04-02T06:43:00,axn,23.77
2024-04-02T06:44:00,axn,24.09
2024-04-02T06:45:00,axn,23.76
2024-04-02T06:46:00,axn,23.82
2024-04-02T06:47:00,axn,23.79
2024-04-02T06:48:00,axn,23.77
2024-04-02T06:49:00,axn,24.14
2024-04-02T06:50:00,axn,23.75
2024-04-02T06:51:00,axn,23.92
2024-04-02T06:52:00,axn,23.58
2024-04-02T06:53:00,axn,23.35
2024-04-02T06:54:00,axn,23.55
2024-04-02T06:55:00,axn,23.65
2024-04-02T06:56:00,axn,23.83
2024-04-02T06:57:00,axn,28.03
2024-04-02T06:58:00,axn,28.20
2024-04-02T06:59:00,axn,23.66
2024-04-02T07:00:00,axn,23.53
2024-04-02T07:01:00,axn,27.55
2024-04-02T07:02:00,axn,30.21
2024-04-02T07:03:00,axn,30.40
2024-04-02T07:04:00,axn,30.11
2024-04-02T07:05:00,axn,32.11
2024-04-02T07:06:00,axn,37.86
2024-04-02T07:07:00,axn,35.17
2024-04-02T07:08:00,axn,31.91
2024-04-02T07:09:00,axn,31.11
2024-04-02T07:10:00,axn,29.48
2024-04-02T07:11:00,axn,30.46
2024-04-02T07:12:00,axn,31.33
2024-04-02T07:13:00,axn,30.99
2024-04-02T07:14:00,axn,30.04
2024-04-02T07:15:00,axn,30.30
2024-04-02T07:16:00,axn,30.12
2024-04-02T07:17:00,axn,30.32
2024-04-02T07:18:00,axn,29.74
2024-04-02T07:19:00,axn,29.70
2024-04-02T07:20:00,axn,29.77
2024-04-02T07:21:00,axn,29.84
2024-04-02T07:22:00,axn,29.68
2024-04-02T07:23:00,axn,29.74
2024-04-02T07:24:00,axn,29.66
2024-04-02T07:25:00,axn,29.71
2024-04-02T07:26:00,axn,29.80
2024-04-02T07:27:00,axn,29.66
2024-04-02T07:28:00,axn,29.65
2024-04-02T07:29:00,axn,34.25
2024-04-02T07:30:00,axn,29.62
2024-04-02T07:31:00,axn,29.65
2024-04-02T07:32:00,axn,29.83
2024-04-02T07:33:00,axn,29.63
2024-04-02T07:34:00,axn,29.55
2024-04-02T07:35:00,axn,29.52
2024-04-02T07:36:00,axn,29.62
2024-04-02T07:37:00,axn,30.36
2024-04-02T07:38:00,axn,30.06
2024-04-02T07:39:00,axn,30.09
2024-04-02T07:40:00,axn,30.04
2024-04-02T07:41:00,axn,31.26
2024-04-02T07:42:00,axn,30.65
2024-04-02T07:43:00,axn,29.83
2024-04-02T07:44:00,axn,30.28
2024-04-02T07:45:00,axn,30.15
2024-04-02T07:46:00,axn,29.98
2024-04-02T07:47:00,axn,29.89
2024-04-02T07:48:00,axn,30.01
2024-04-02T07:49:00,axn,30.09
2024-04-02T07:50:00,axn,30.25
2024-04-02T07:51:00,axn,30.25
2024-04-02T07:52:00,axn,30.13
2024-04-02T07:53:00,axn,30.31
2024-04-02T07:54:00,axn,30.47
2024-04-02T07:55:00,axn,30.74
2024-04-02T07:56:00,axn,30.76
2024-04-02T07:57:00,axn,32.01
2024-04-02T07:58:00,axn,36.48
2024-04-02T07:59:00,axn,36.10
2024-04-02T08:00:00,axn,31.46
2024-04-02T08:01:00,axn,33.55
2024-04-02T08:02:00,axn,37.76
2024-04-02T08:03:00,axn,37.34
2024-04-02T08:04:00,axn,37.15
2024-04-02T08:05:00,axn,37.24
2024-04-02T08:06:00,axn,37.43
2024-04-02T08:07:00,axn,37.81
2024-04-02T08:08:00,axn,37.58
2024-04-02T08:09:00,axn,37.53
2024-04-02T08:10:00,axn,37.49
2024-04-02T08:11:00,axn,37.76
2024-04-02T08:12:00,axn,38.48
2024-04-02T08:13:00,axn,38.16
2024-04-02T08:14:00,axn,38.32
2024-04-02T08:15:00,axn,39.65
2024-04-02T08:16:00,axn,41.05
2024-04-02T08:17:00,axn,40.96
2024-04-02T08:18:00,axn,40.11
2024-04-02T08:19:00,axn,40.51
2024-04-02T08:20:00,axn,40.26
2024-04-02T08:21:00,axn,41.26
2024-04-02T08:22:00,axn,40.94
2024-04-02T08:23:00,axn,40.82
2024-04-02T08:24:00,axn,40.23
2024-04-02T08:25:00,axn,40.41
2024-04-02T08:26:00,axn,45.30
2024-04-02T08:27:00,axn,41.68
2024-04-02T08:28:00,axn,40.77
2024-04-02T08:29:00,axn,40.50
2024-04-02T08:30:00,axn,40.93
2024-04-02T08:31:00,axn,40.71
2024-04-02T08:32:00,axn,41.16
2024-04-02T08:33:00,axn,40.94
2024-04-02T08:34:00,axn,40.26
2024-04-02T08:35:00,axn,39.89
2024-04-02T08:36:00,axn,40.05
2024-04-02T08:37:00,axn,39.79
2024-04-02T08:38:00,axn,39.98
2024-04-02T08:39:00,axn,39.88
2024-04-02T08:40:00,axn,40.11
2024-04-02T08:41:00,axn,40.12
2024-04-02T08:42:00,axn,40.01
2024-04-02T08:43:00,axn,42.05
2024-04-02T08:44:00,axn,42.67
2024-04-02T08:45:00,axn,42.08
2024-04-02T08:46:00,axn,42.63
2024-04-02T08:47:00,axn,42.22
2024-04-02T08:48:00,axn,42.31
2024-04-02T08:49:00,axn,46.57
2024-04-02T08:50:00,axn,41.90
2024-04-02T08:51:00,axn,41.99
2024-04-02T08:52:00,axn,42.23
2024-04-02T08:53:00,axn,42.73
2024-04-02T08:54:00,axn,42.97
2024-04-02T08:55:00,axn,42.78
2024-04-02T08:56:00,axn,43.03
2024-04-02T08:57:00,axn,42.29
2024-04-02T08:58:00,axn,42.59
2024-04-02T08:59:00,axn,42.98
2024-04-02T09:00:00,axn,42.71
2024-04-02T09:01:00,axn,41.83
2024-04-02T09:02:00,axn,42.54
2024-04-02T09:03:00,axn,42.10
2024-04-02T09:04:00,axn,42.44
2024-04-02T09:05:00,axn,42.56
2024-04-02T09:06:00,axn,42.45
2024-04-02T09:07:00,axn,42.76
2024-04-02T09:08:00,axn,42.90
2024-04-02T09:09:00,axn,43.10
2024-04-02T09:10:00,axn,42.99
2024-04-02T09:11:00,axn,42.89
2024-04-02T09:12:00,axn,42.83
2024-04-02T09:13:00,axn,43.16
2024-04-02T09:14:00,axn,43.30
2024-04-02T09:15:00,axn,43.59
2024-04-02T09:16:00,axn,49.45
2024-04-02T09:17:00,axn,47.63
2024-04-02T09:18:00,axn,43.08
2024-04-02T09:19:00,axn,43.24
2024-04-02T09:20:00,axn,42.88
2024-04-02T09:21:00,axn,42.91
2024-04-02T09:22:00,axn,42.64
2024-04-02T09:23:00,axn,42.47
2024-04-02T09:24:00,axn,43.62
2024-04-02T09:25:00,axn,42.60
2024-04-02T09:26:00,axn,42.68
2024-04-02T09:27:00,axn,43.03
2024-04-02T09:28:00,axn,42.64
2024-04-02T09:29:00,axn,61.33
2024-04-02T09:30:00,axn,53.05
2024-04-02T09:31:00,axn,53.03
2024-04-02T09:32:00,axn,52.91
2024-04-02T09:33:00,axn,52.57
2024-04-02T09:34:00,axn,53.90
2024-04-02T09:35:00,axn,42.66
2024-04-02T09:36:00,axn,42.20
2024-04-02T09:37:00,axn,42.89
2024-04-02T09:38:00,axn,42.87
2024-04-02T09:39:00,axn,42.46
2024-04-02T09:40:00,axn,42.66
2024-04-02T09:41:00,axn,42.53
2024-04-02T09:42:00,axn,57.59
2024-04-02T09:43:00,axn,57.44
2024-04-02T09:44:00,axn,57.20
2024-04-02T09:45:00,axn,58.76
2024-04-02T09:46:00,axn,62.88
2024-04-02T09:47:00,axn,58.48
2024-04-02T09:48:00,axn,44.45
2024-04-02T09:49:00,axn,44.45
2024-04-02T09:50:00,axn,44.64
2024-04-02T09:51:00,axn,44.98
2024-04-02T09:52:00,axn,44.70
2024-04-02T09:53:00,axn,44.79
2024-04-02T09:54:00,axn,44.82
2024-04-02T09:55:00,axn,44.94
2024-04-02T09:56:00,axn,45.54
2024-04-02T09:57:00,axn,45.51
2024-04-02T09:58:00,axn,45.60
2024-04-02T09:59:00,axn,44.91
2024-04-02T10:00:00,axn,47.91
2024-04-02T10:01:00,axn,47.47
2024-04-02T10:02:00,axn,44.75
2024-04-02T10:03:00,axn,44.86
2024-04-02T10:04:00,axn,44.61
2024-04-02T10:05:00,axn,45.00
2024-04-02T10:06:00,axn,44.25
2024-04-02T10:07:00,axn,44.11
2024-04-02T10:08:00,axn,44.07
2024-04-02T10:09:00,axn,44.13
2024-04-02T10:10:00,axn,44.58
2024-04-02T10:11:00,axn,48.67
2024-04-02T10:12:00,axn,48.95
2024-04-02T10:13:00,axn,44.96
2024-04-02T10:14:00,axn,45.42
2024-04-02T10:15:00,axn,45.23
2024-04-02T10:16:00,axn,44.31
2024-04-02T10:17:00,axn,44.43
2024-04-02T10:18:00,axn,45.24
2024-04-02T10:19:00,axn,44.95
2024-04-02T10:20:00,axn,45.10
2024-04-02T10:21:00,axn,43.62
2024-04-02T10:22:00,axn,43.66
2024-04-02T10:23:00,axn,43.59
2024-04-02T10:24:00,axn,44.27
2024-04-02T10:25:00,axn,43.89
2024-04-02T10:26:00,axn,44.42
2024-04-02T10:27:00,axn,44.21
2024-04-02T10:28:00,axn,44.39
2024-04-02T10:29:00,axn,44.35
2024-04-02T10:30:00,axn,44.13
2024-04-02T10:31:00,axn,50.02
2024-04-02T10:32:00,axn,50.19
2024-04-02T10:33:00,axn,49.83
2024-04-02T10:34:00,axn,43.53
2024-04-02T10:35:00,axn,48.81
2024-04-02T10:36:00,axn,48.24
2024-04-02T10:37:00,axn,45.34
2024-04-02T10:38:00,axn,44.08
2024-04-02T10:39:00,axn,44.36
2024-04-02T10:40:00,axn,44.07
2024-04-02T10:41:00,axn,43.77
2024-04-02T10:42:00,axn,44.39
2024-04-02T10:43:00,axn,44.09
2024-04-02T10:44:00,axn,43.69
2024-04-02T10:45:00,axn,44.00
2024-04-02T10:46:00,axn,44.08
2024-04-02T10:47:00,axn,44.30
2024-04-02T10:48:00,axn,44.82
2024-04-02T10:49:00,axn,43.89
2024-04-02T10:50:00,axn,44.13
2024-04-02T10:51:00,axn,43.96
2024-04-02T10:52:00,axn,44.07
2024-04-02T10:53:00,axn,43.53
2024-04-02T10:54:00,axn,43.78
2024-04-02T10:55:00,axn,48.12
2024-04-02T10:56:00,axn,48.71
2024-04-02T10:57:00,axn,43.81
2024-04-02T10:58:00,axn,44.44
2024-04-02T10:59:00,axn,43.46
2024-04-02T11:00:00,axn,43.82
2024-04-02T11:01:00,axn,44.25
2024-04-02T11:02:00,axn,44.67
2024-04-02T11:03:00,axn,44.36
2024-04-02T11:04:00,axn,44.98
2024-04-02T11:05:00,axn,43.88
2024-04-02T11:06:00,axn,43.36
2024-04-02T11:07:00,axn,45.11
2024-04-02T11:08:00,axn,45.62
2024-04-02T11:09:00,axn,45.18
2024-04-02T11:10:00,axn,45.55
2024-04-02T11:11:00,axn,45.15
2024-04-02T11:12:00,axn,44.54
2024-04-02T11:13:00,axn,49.35
2024-04-02T11:14:00,axn,49.95
2024-04-02T11:15:00,axn,45.46
2024-04-02T11:16:00,axn,46.17
2024-04-02T11:17:00,axn,48.14
2024-04-02T11:18:00,axn,46.48
2024-04-02T11:19:00,axn,47.28
2024-04-02T11:20:00,axn,46.50
2024-04-02T11:21:00,axn,47.05
2024-04-02T11:22:00,axn,45.68
2024-04-02T11:23:00,axn,45.56
2024-04-02T11:24:00,axn,45.60
2024-04-02T11:25:00,axn,45.75
2024-04-02T11:26:00,axn,46.27
2024-04-02T11:27:00,axn,45.50
2024-04-02T11:28:00,axn,68.44
2024-04-02T11:29:00,axn,46.22
2024-04-02T11:30:00,axn,61.15
2024-04-02T11:31:00,axn,45.26
2024-04-02T11:32:00,axn,46.59
2024-04-02T11:33:00,axn,46.51
2024-04-02T11:34:00,axn,45.84
2024-04-02T11:35:00,axn,46.45
2024-04-02T11:36:00,axn,54.59
2024-04-02T11:37:00,axn,55.81
2024-04-02T11:38:00,axn,54.73
2024-04-02T11:39:00,axn,54.53
2024-04-02T11:40:00,axn,54.40
2024-04-02T11:41:00,axn,55.01
2024-04-02T11:42:00,axn,53.95
2024-04-02T11:43:00,axn,54.21
2024-04-02T11:44:00,axn,54.87
2024-04-02T11:45:00,axn,53.73
2024-04-02T11:46:00,axn,54.02
2024-04-02T11:47:00,axn,54.50
2024-04-02T11:48:00,axn,53.72
2024-04-02T11:49:00,axn,53.91
2024-04-02T11:50:00,axn,53.36
2024-04-02T11:51:00,axn,53.50
2024-04-02T11:52:00,axn,53.50
2024-04-02T11:53:00,axn,53.87
2024-04-02T11:54:00,axn,53.96
2024-04-02T11:55:00,axn,53.51
2024-04-02T11:56:00,axn,53.33
2024-04-02T11:57:00,axn,53.49
2024-04-02T11:58:00,axn,53.27
2024-04-02T11:59:00,axn,53.00
2024-04-02T12:00:00,axn,53.15
2024-04-02T12:01:00,axn,53.79
2024-04-02T12:02:00,axn,53.48
2024-04-02T12:03:00,axn,53.54
2024-04-02T12:04:00,axn,53.89
2024-04-02T12:05:00,axn,53.64
2024-04-02T12:06:00,axn,53.73
2024-04-02T12:07:00,axn,53.78
2024-04-02T12:08:00,axn,58.54
2024-04-02T12:09:00,axn,58.56
2024-04-02T12:10:00,axn,54.30
2024-04-02T12:11:00,axn,54.27
2024-04-02T12:12:00,axn,54.46
2024-04-02T12:13:00,axn,54.06
2024-04-02T12:14:00,axn,54.45
2024-04-02T12:15:00,axn,54.58
2024-04-02T12:16:00,axn,59.63
2024-04-02T12:17:00,axn,54.53
2024-04-02T12:18:00,axn,54.31
2024-04-02T12:19:00,axn,54.14
2024-04-02T12:20:00,axn,54.31
2024-04-02T12:21:00,axn,54.12
2024-04-02T12:22:00,axn,54.01
2024-04-02T12:23:00,axn,54.28
2024-04-02T12:24:00,axn,54.22
2024-04-02T12:25:00,axn,58.01
2024-04-02T12:26:00,axn,57.30
2024-04-02T12:27:00,axn,54.60
2024-04-02T12:28:00,axn,53.57
2024-04-02T12:29:00,axn,53.93
2024-04-02T12:30:00,axn,54.42
2024-04-02T12:31:00,axn,53.34
2024-04-02T12:32:00,axn,53.66
2024-04-02T12:33:00,axn,53.44
2024-04-02T12:34:00,axn,58.86
2024-04-02T12:35:00,axn,58.36
2024-04-02T12:36:00,axn,52.93
2024-04-02T12:37:00,axn,52.58
2024-04-02T12:38:00,axn,52.93
2024-04-02T12:39:00,axn,52.44
2024-04-02T12:40:00,axn,53.58
2024-04-02T12:41:00,axn,53.59
2024-04-02T12:42:00,axn,52.82
2024-04-02T12:43:00,axn,53.04
2024-04-02T12:44:00,axn,53.78
2024-04-02T12:45:00,axn,53.44
2024-04-02T12:46:00,axn,53.49
2024-04-02T12:47:00,axn,53.57
2024-04-02T12:48:00,axn,53.24
2024-04-02T12:49:00,axn,53.43
2024-04-02T12:50:00,axn,53.96
2024-04-02T12:51:00,axn,53.47
2024-04-02T12:52:00,axn,54.08
2024-04-02T12:53:00,axn,53.51
2024-04-02T12:54:00,axn,56.94
2024-04-02T12:55:00,axn,52.14
2024-04-02T12:56:00,axn,53.02
2024-04-02T12:57:00,axn,53.08
2024-04-02T12:58:00,axn,52.36
2024-04-02T12:59:00,axn,52.65
2024-04-02T13:00:00,axn,52.66
2024-04-02T13:01:00,axn,52.31
2024-04-02T13:02:00,axn,52.03
2024-04-02T13:03:00,axn,52.68
2024-04-02T13:04:00,axn,52.73
2024-04-02T13:05:00,axn,52.51
2024-04-02T13:06:00,axn,52.81
2024-04-02T13:07:00,axn,52.47
2024-04-02T13:08:00,axn,52.42
2024-04-02T13:09:00,axn,53.46
2024-04-02T13:10:00,axn,53.57
2024-04-02T13:11:00,axn,53.17
2024-04-02T13:12:00,axn,53.65
2024-04-02T13:13:00,axn,52.58
2024-04-02T13:14:00,axn,58.28
2024-04-02T13:15:00,axn,57.08
2024-04-02T13:16:00,axn,52.72
2024-04-02T13:17:00,axn,63.86
2024-04-02T13:18:00,axn,63.82